Terminal Aerodrome Forecast
Issued by NWS Mt. Holly, NJ

Home | Current Version | Previous Version | Text Only | Print | Product List | Glossary On
Versions: 1 2 3 4 5 6 7 8 9 10 11 12 13 14 15 16 17 18 19 20 21 22 23 24
979
FTUS41 KPHI 231726
TAFRDG
TAF
KRDG 231726Z 2318/2418 07020G30KT 6SM -RA BR OVC020
     FM232000 05025G35KT 3SM -RA BR OVC012
     FM232300 02018G28KT 2SM RA OVC007
     FM240800 35014G22KT 2SM -RA BR OVC007=

USA.gov is the U.S. government's official web portal to all federal, state and local government web resources and services.